Simultaneous Nadir Overpasses (SNOs) Predictions

Prediction of SNOs between GOES-15 and METOP-A Satellite Orbit:

Table of predicted SNOs for the next 14.0 days since TLE Epoch: 9/3/2016
Index Date Time (GOES-15) GOES-15 Lat,Lon METOP-A Lat,Lon Distance(km) Time Diff (sec)
1 09/03/2016 18:24:03 -0.20,-135.37 -0.59,-133.54 208.04 80
2 09/05/2016 06:40:25 0.23,-135.36 -0.39,-138.15 317.73 80
3 09/06/2016 06:22:25 0.21,-135.37 0.69,-133.15 253.41 80
4 09/07/2016 18:38:39 -0.24,-135.43 0.29,-137.71 260.27 80
5 09/08/2016 18:20:40 -0.22,-135.45 -0.86,-132.73 310.77 80
6 09/10/2016 06:37:00 0.24,-135.42 -0.18,-137.32 215.82 80
7 09/11/2016 06:19:01 0.23,-135.43 0.91,-132.32 354.41 80
8 09/12/2016 18:35:14 -0.25,-135.47 0.07,-136.89 160.92 80
9 09/13/2016 18:17:15 -0.23,-135.48 -1.02,-131.88 409.19 80
10 09/15/2016 06:33:36 0.26,-135.45 0.05,-136.49 118.23 80
11 09/16/2016 06:15:37 0.24,-135.44 1.14,-131.49 451.16 80




NCC Satellite Simultaneous Nadir Overpasses (SNOs) Prediction Service
